16:35
Airports
History
Links
Donate
Help keep this website running!
PayPal
Bitcoin
Information on this page is community maintained and may be outdated or inaccurate and is intended for reference only or PC simulator navigating.
Always use approved charts for navigating.
UHSS
KHOMUTOVO
KHOMUTOVO (UHSS)
Khomutovo, Sakhalinskaya oblast, Russian Federation (693014)
(C)
Lat/Lng:46° 53' 8.1" N / 142° 43' 3.1" E
46.885582 / 142.717529
Elevation:59'ft 18mMSL
ID / ICAO:UHSS
Runways:1
Longest:(01-19) 3,379.6m 11,088ft Concrete
Controlled:Yes
Distance To
Airport ID:
Airport Radio Frequencies
Tower: 120.6
Nearby VORs <50NM
Nearby NDBs
METARUpdated 07-04-17 05:30 GMT
Altimeter: 29.65
Visibility: 6.2 statute miles
Wind: 7.8 knots (190°)
Temp: 18°c 64°f
Humidity: 77.5%

METAR: UHSS 040530Z 19004MPS 9999 NSC 18/14 Q1004 R19/CLRD70 NOSIG RMK QFE751/1002

(Powered by phpweather)
Runway 01 / 19
Dimensions:3379.6 x 45.1m 11088' x 148'ft
Surface:Concrete
Edge Lights:Low intensity
Runway 01 [A]Runway 19 [B]
Heading:000°TH 180°TH
Lat:
Lng:
46° 52' 13.3"N
142° 43' 2.18"E
46° 54' 2.89"N
142° 43' 4.03"E
ALS:MALSMALS
User Notes and Comments
Google Map
Nearby Airports
(C) WAKKANAI 111.4 NM
RJCW (WX) SSW 203°
(C) Rebun 127.3 NM
RJCR SW 218°
(C) RISHIRI 135.2 NM
RJER SSW 212°
(C) MONBETSU 181.4 NM
RJEB (WX) S 169°
(C) Daicolo-Aibetsu 207.7 NM
RJX2 S 181°
(C) MEMANBETSU 219.1 NM
RJCM (WX) SSE 161°
(C) Asahikawa 222.5 NM
RJEC (WX) S 183°
VFR Chart
Flight Planning at SkyVector.com